TimeMST,TemperatureF,Dew PointF,Humidity,Sea Level PressureIn,VisibilityMPH,Wind Direction,Wind SpeedMPH,Gust SpeedMPH,PrecipitationIn,Events,Conditions,WindDirDegrees,DateUTC
12:53 AM,9.0,7.0,92,30.53,7.0,East,6.9,-,N/A,,Clear,80,2013-01-22 07:53:00
1:53 AM,10.0,7.0,87,30.55,10.0,East,4.6,-,N/A,,Clear,90,2013-01-22 08:53:00
2:53 AM,1.9,1.0,96,30.56,6.0,Calm,Calm,-,N/A,,Clear,0,2013-01-22 09:53:00
3:53 AM,3.9,3.0,96,30.57,9.0,West,3.5,-,N/A,,Clear,270,2013-01-22 10:53:00
4:53 AM,-0.0,-2.0,91,30.60,10.0,Calm,Calm,-,N/A,,Clear,0,2013-01-22 11:53:00
5:53 AM,-0.0,-2.0,91,30.63,10.0,ENE,4.6,-,N/A,,Clear,60,2013-01-22 12:53:00
6:53 AM,-0.9,-4.0,87,30.67,9.0,Calm,Calm,-,N/A,,Clear,0,2013-01-22 13:53:00
7:53 AM,1.9,-0.0,91,30.67,10.0,East,3.5,-,N/A,,Clear,90,2013-01-22 14:53:00
8:53 AM,12.9,8.1,81,30.65,10.0,East,8.1,-,N/A,,Clear,100,2013-01-22 15:53:00
9:53 AM,9.0,7.0,92,30.67,10.0,Calm,Calm,-,0.00,,Clear,0,2013-01-22 16:53:00
10:53 AM,19.0,12.0,74,30.62,9.0,ENE,3.5,-,N/A,,Clear,70,2013-01-22 17:53:00
11:53 AM,21.0,16.0,81,30.61,10.0,NW,3.5,-,N/A,,Clear,310,2013-01-22 18:53:00
12:53 PM,24.1,17.1,75,30.55,10.0,NNW,5.8,-,N/A,,Clear,340,2013-01-22 19:53:00
1:53 PM,26.1,16.0,66,30.52,-9999.0,North,-9999.0,-,N/A,,Unknown,0,2013-01-22 20:53:00
2:53 PM,24.1,19.0,81,30.55,9.0,NW,3.5,-,N/A,,Clear,320,2013-01-22 21:53:00
3:53 PM,21.9,16.0,78,30.54,8.0,NW,5.8,-,N/A,,Clear,310,2013-01-22 22:53:00
4:53 PM,21.0,15.1,78,30.55,10.0,Calm,Calm,-,N/A,,Clear,0,2013-01-22 23:53:00
5:53 PM,12.0,10.0,92,30.60,7.0,Calm,Calm,-,N/A,,Clear,0,2013-01-23 00:53:00
6:53 PM,10.9,8.1,88,30.63,10.0,Calm,Calm,-,N/A,,Clear,0,2013-01-23 01:53:00
7:53 PM,10.9,8.1,88,30.61,10.0,Calm,Calm,-,N/A,,Clear,0,2013-01-23 02:53:00
8:53 PM,5.0,3.0,92,30.61,10.0,Calm,Calm,-,N/A,,Clear,0,2013-01-23 03:53:00
9:53 PM,8.1,5.0,87,30.63,10.0,ENE,4.6,-,N/A,,Clear,70,2013-01-23 04:53:00
10:53 PM,7.0,3.9,87,30.61,10.0,Calm,Calm,-,N/A,,Clear,0,2013-01-23 05:53:00
11:53 PM,3.2,1.4,92,30.42,10.0,Calm,Calm,-,N/A,,Clear,0,2013-01-23 06:53:00